ALCOMSAT 1 (43039 NORAD) Tracking and Keplerian Element Data

This shows tracking and keplerian element data for the satellite.

Feedback or suggestion? Click here.




ElementValue
Catalog43039
NameALCOMSAT 1
Epoch Orbit259
Epoch Day228.16739741
Epoch Year2018
RAAN137.0308
Inclination0.0113
Eccentricity0.0003234
Argument of Perigee7.1137
Mean Anonmoly215.8623
Mean Motion1.00271521
Decay Rate-2.1E-06
L11 43039U 17078A 18228.16739741 -.00000210 00000-0 00000+0 0 9994
L22 43039 0.0113 137.0308 0003234 7.1137 215.8623 1.00271521 2591

Live tracking and technical data element details for ALCOMSAT 1 (NORAD 43039). ALCOMSAT 1 can be tracked NOW for your location showing map with azimuth and elevation plus other details from your city location.

Track the satellite on the map from your city or location and see movement details for azimuth, elevation, latitude, longitude, range, height, and movement on the map or in text.







IsCatalogInMostPopularTable: catalog: 43039, numindb: 106
Update: records affected: 1



GetName: 43039 ALCOMSAT 1

Hit Count: updated at: Fri, 17 Aug 2018 13:20:09 GMT